Flag for Canada Weather past 2 weeks in Thompson, Manitoba, Canada

Now
52 °F

Passing clouds.


Feels Like: 50 °F
Forecast: 47 / 62 °F
Wind: 6 mph from North

Location: Thompson

Current Time: Sep 5, 2015 at 5:26:53 AM

Latest Report: Sep 5, 2015 at 5:00 AM


Visibility: 15 mi

Pressure: 30.08 "Hg

Humidity: 82%

Dew point: 46 °F

Location of ThompsonLocation

Historic Weather in Thompson — Graph

°F

Thompson temperature yesterday

Maximum temperature yesterday: 70 °F (at 4:00 PM)
Minimum temperature yesterday: 48 °F (at 5:00 AM)
Average temperature yesterday: 59 °F

Past Weeks' High & Low Weather Summary

 TemperatureHumidityPressure
High79 °F (Sep 3, 3:00 PM)100% (Aug 21, 4:00 AM)30.18 "Hg (Aug 21, 4:00 AM)
Low36 °F (Aug 24, 5:00 AM)37% (Aug 24, 6:00 PM)29.52 "Hg (Aug 31, 2:00 PM)
Average57 °F80%29.84 "Hg
* Reported Aug 21 4:00 AM — Sep 5 4:00 AM, Thompson, Weather by CustomWeather, © 2015

Note: Actual official high and low records may vary slightly from our data, if they occured in-between our weather recording intervals... More about our weather records

Advertising

Thompson weather history for previous 24 hours

 ConditionsComfort  
Time TempWeatherWind HumidityBarometerVisibility
4:00 AM
Sat, Sep 5
52 °FCool.5 mph82%30.09 "Hg15 mi
3:00 AM50 °FPartly cloudy.3 mph88%30.09 "Hg15 mi
2:00 AM50 °FPartly cloudy.5 mph82%30.09 "Hg15 mi
1:00 AM54 °FPassing clouds.3 mph77%30.07 "Hg15 mi
12:00 AM55 °FPartly cloudy.6 mph72%30.06 "Hg15 mi
11:00 PM
Fri, Sep 4
54 °FPartly cloudy.8 mph77%30.05 "Hg15 mi
10:00 PM55 °FPassing clouds.7 mph72%30.06 "Hg15 mi
9:00 PM54 °FPartly sunny.7 mph77%30.06 "Hg15 mi
8:00 PM59 °FPartly sunny.5 mph68%30.04 "Hg15 mi
7:00 PM66 °FPartly sunny.6 mph49%30.02 "Hg15 mi
6:00 PM68 °FScattered clouds.9 mph46%30.00 "Hg15 mi
5:00 PM68 °FScattered clouds.12 mph43%29.96 "Hg15 mi
4:00 PM70 °FScattered clouds.13 mph40%29.97 "Hg15 mi
3:00 PM68 °FPartly sunny.9 mph43%29.98 "Hg15 mi
2:00 PM66 °FBroken clouds.8 mph46%29.97 "Hg15 mi
1:00 PM64 °FBroken clouds.5 mph56%29.98 "Hg15 mi
12:00 PM61 °FBroken clouds.10 mph63%29.97 "Hg15 mi
11:00 AM57 °FPartly sunny.7 mph72%29.97 "Hg15 mi
10:00 AM55 °FPartly sunny.6 mph77%29.96 "Hg15 mi
8:00 AM50 °FScattered clouds.6 mph88%29.93 "Hg15 mi
7:00 AM48 °FPartly cloudy.2 mph87%29.90 "Hg15 mi
6:00 AM48 °FPassing clouds.3 mph87%29.90 "Hg15 mi
5:00 AM48 °FPassing clouds.3 mph94%29.90 "Hg15 mi
Weather by CustomWeather, © 2015

See weather overviewHow to use our weather pages